M I D A S
Marine Information and Data Acquisition System
Tripno 1069 of the Zeeleeuw from 2006-04-10 07:21:34 to 2006-04-10 13:24:46
Back to CruiseResearch ActivitiesStationsMapUnderway DataData graphs

EquipmentUnitsComments
TimeDGPSUTC
LatitudeDGPSDM.mWGS84
LongitudeDGPSDM.mWGS84
SpeedMeteo Stationm/sRelative wind speed
DirectionMeteo StationdegRelative wind direction
TemperatureMeteo Stationdeg CelciusAir temperature
PressureMeteo StationPaAtmospheric pressure
HumidityMeteo Station%Relative humidity
Missing or incorrect values are displayed as -999
Metereological data collected by the RV Zeeleeuw from 2006-04-10 07:21:20 to 2006-04-10 13:38:36
Time Latitude Longitude Speed Direction Temperature Pressure Humidity
2006-04-10 07:22 51°13.614 2°56.039 -999 249 6 101830 67
2006-04-10 07:23 51°13.64 2°55.93 -999 241 6 101820 68
2006-04-10 07:24 51°13.678 2°55.831 -999 236 6 101820 68
2006-04-10 07:25 51°13.716 2°55.743 -999 238 6 101830 68
2006-04-10 07:26 51°13.72 2°55.747 -999 307 6 101820 69
2006-04-10 07:27 51°13.713 2°55.721 -999 290 6 101830 69
2006-04-10 07:28 51°13.724 2°55.743 -999 348 6 101810 68
2006-04-10 07:29 51°13.706 2°55.731 -999 319 6 101820 68
2006-04-10 07:30 51°13.751 2°55.698 -999 36 6 101820 67
2006-04-10 07:31 51°13.837 2°55.623 -999 22 5.9 101820 67
2006-04-10 07:32 51°13.927 2°55.557 -999 38 6 101820 67
2006-04-10 07:33 51°14.031 2°55.481 -999 34 5.9 101820 67
2006-04-10 07:34 51°14.168 2°55.378 -999 38 5.9 101810 67
2006-04-10 07:35 51°14.288 2°55.212 -999 53 5.9 101810 67
2006-04-10 07:36 51°14.398 2°55.012 -999 47 6 101810 71
2006-04-10 07:37 51°14.537 2°54.83 -999 42 6 101790 68
2006-04-10 07:38 51°14.706 2°54.641 -999 42 5.9 101810 68
2006-04-10 07:39 51°14.872 2°54.46 -999 39 6 101800 69
2006-04-10 07:40 51°15.042 2°54.27 -999 32 5.9 101800 66
2006-04-10 07:41 51°15.208 2°54.09 -999 44 5.9 101800 64
2006-04-10 07:42 51°15.384 2°53.909 -999 42 5.9 101800 64
2006-04-10 07:43 51°15.547 2°53.723 -999 42 6 101810 65
2006-04-10 07:44 51°15.718 2°53.552 -999 40 6.1 101820 68
2006-04-10 07:45 51°15.897 2°53.385 -999 36 6.1 101810 71
2006-04-10 07:46 51°16.072 2°53.231 -999 34 6 101820 69
2006-04-10 07:47 51°16.249 2°53.071 -999 28 6 101820 70
2006-04-10 07:48 51°16.425 2°52.922 -999 38 6 101830 70
2006-04-10 07:49 51°16.605 2°52.785 -999 34 6 101820 70
2006-04-10 07:50 51°16.788 2°52.674 -999 31 6 101810 71
2006-04-10 07:51 51°16.979 2°52.609 -999 28 6.1 101820 71
2006-04-10 07:52 51°17.174 2°52.556 -999 26 6 101820 69
2006-04-10 07:53 51°17.365 2°52.514 -999 26 5.9 101830 67
2006-04-10 07:54 51°17.557 2°52.478 -999 22 6 101830 66
2006-04-10 07:55 51°17.75 2°52.466 -999 23 6 101800 66
2006-04-10 07:56 51°17.946 2°52.475 -999 21 6.1 101800 67
2006-04-10 07:57 51°18.119 2°52.589 -999 2 6.1 101840 67
2006-04-10 07:58 51°18.258 2°52.812 -999 351 6.1 101810 67
2006-04-10 07:59 51°18.342 2°53.094 -999 345 6.1 101810 68
2006-04-10 08:00 51°18.411 2°53.382 -999 345 6.1 101800 68
2006-04-10 08:01 51°18.493 2°53.669 -999 338 6.1 101800 66
2006-04-10 08:02 51°18.575 2°53.957 -999 339 6.1 101800 65
2006-04-10 08:03 51°18.659 2°54.244 -999 341 6.1 101800 67
2006-04-10 08:04 51°18.742 2°54.523 -999 340 6.2 101810 69
2006-04-10 08:05 51°18.822 2°54.808 -999 343 6.2 101790 67
2006-04-10 08:06 51°18.898 2°55.095 -999 341 6.2 101800 68
2006-04-10 08:07 51°18.974 2°55.388 -999 338 6.1 101790 67
2006-04-10 08:08 51°19.049 2°55.667 -999 334 6.1 101790 67
2006-04-10 08:09 51°19.128 2°55.949 -999 339 6.1 101810 68
2006-04-10 08:10 51°19.206 2°56.235 -999 342 6.1 101800 65
2006-04-10 08:11 51°19.281 2°56.514 -999 345 6.1 101810 66
2006-04-10 08:12 51°19.358 2°56.803 -999 337 6.2 101810 67
2006-04-10 08:13 51°19.434 2°57.084 -999 337 6.2 101810 68
2006-04-10 08:14 51°19.51 2°57.37 -999 341 6.1 101810 67
2006-04-10 08:15 51°19.591 2°57.662 -999 343 6.2 101820 69
2006-04-10 08:16 51°19.666 2°57.951 -999 337 6.2 101820 69
2006-04-10 08:17 51°19.741 2°58.232 -999 334 6.2 101840 69
2006-04-10 08:18 51°19.82 2°58.521 -999 338 6.3 101830 70
2006-04-10 08:19 51°19.894 2°58.809 -999 332 6.2 101820 66
2006-04-10 08:20 51°19.968 2°59.093 -999 344 6.2 101820 66
2006-04-10 08:21 51°20.044 2°59.383 -999 339 6.2 101830 65
2006-04-10 08:22 51°20.122 2°59.674 -999 346 6.2 101830 67
2006-04-10 08:23 51°20.199 2°59.969 -999 334 6.2 101830 66
2006-04-10 08:24 51°20.275 3°0.27 -999 337 6.2 101840 67
2006-04-10 08:25 51°20.352 3°0.569 -999 339 6.2 101840 68
2006-04-10 08:26 51°20.429 3°0.866 -999 341 6.3 101850 69
2006-04-10 08:27 51°20.507 3°1.16 -999 341 6.3 101860 69
2006-04-10 08:28 51°20.586 3°1.465 -999 345 6.3 101840 67
2006-04-10 08:29 51°20.666 3°1.76 -999 343 6.4 101850 69
2006-04-10 08:30 51°20.743 3°2.061 -999 349 6.4 101840 69
2006-04-10 08:31 51°20.822 3°2.358 -999 346 6.4 101830 69
2006-04-10 08:32 51°20.904 3°2.665 -999 347 6.4 101850 68
2006-04-10 08:33 51°20.982 3°2.961 -999 345 6.4 101860 67
2006-04-10 08:34 51°21.064 3°3.262 -999 349 6.4 101840 68
2006-04-10 08:35 51°21.146 3°3.566 -999 340 6.4 101850 68
2006-04-10 08:36 51°21.232 3°3.875 -999 341 6.4 101840 68
2006-04-10 08:37 51°21.314 3°4.178 -999 347 6.5 101850 68
2006-04-10 08:38 51°21.385 3°4.478 -999 340 6.4 101840 66
2006-04-10 08:39 51°21.448 3°4.791 -999 339 6.4 101850 66
2006-04-10 08:40 51°21.511 3°5.107 -999 342 6.4 101830 66
2006-04-10 08:41 51°21.576 3°5.422 -999 337 6.4 101860 66
2006-04-10 08:42 51°21.642 3°5.739 -999 333 6.4 101860 67
2006-04-10 08:43 51°21.705 3°6.045 -999 343 6.4 101860 68
2006-04-10 08:44 51°21.762 3°6.362 -999 339 6.4 101850 68
2006-04-10 08:45 51°21.815 3°6.683 -999 335 6.4 101850 67
2006-04-10 08:46 51°21.86 3°7.014 -999 343 6.3 101860 66
2006-04-10 08:47 51°21.903 3°7.333 -999 334 6.3 101840 66
2006-04-10 08:48 51°21.94 3°7.667 -999 332 6.3 101840 68
2006-04-10 08:49 51°21.973 3°7.997 -999 331 6.3 101860 67
2006-04-10 08:50 51°22.007 3°8.322 -999 340 6.3 101870 70
2006-04-10 08:51 51°22.042 3°8.658 -999 336 6.3 101850 69
2006-04-10 08:52 51°22.077 3°8.989 -999 338 6.4 101860 69
2006-04-10 08:53 51°22.113 3°9.318 -999 338 6.3 101840 67
2006-04-10 08:54 51°22.152 3°9.654 -999 336 6.3 101860 68
2006-04-10 08:55 51°22.192 3°9.996 -999 331 6.2 101850 68
2006-04-10 08:56 51°22.23 3°10.328 -999 335 6.2 101850 68
2006-04-10 08:57 51°22.281 3°10.673 -999 337 6.2 101860 67
2006-04-10 08:58 51°22.327 3°11.017 -999 333 6.2 101840 68
2006-04-10 08:59 51°22.373 3°11.358 -999 332 6.2 101870 68
2006-04-10 09:00 51°22.418 3°11.713 -999 340 6.3 101860 71
2006-04-10 09:01 51°22.463 3°12.064 -999 337 6.3 101860 69
2006-04-10 09:02 51°22.506 3°12.416 -999 335 6.3 101850 68
2006-04-10 09:03 51°22.55 3°12.762 -999 337 6.3 101840 66
2006-04-10 09:04 51°22.591 3°13.075 -999 325 6.3 101860 67
2006-04-10 09:05 51°22.614 3°13.206 -999 328 6.3 101880 68
2006-04-10 09:06 51°22.601 3°13.225 -999 304 6.3 101890 68
2006-04-10 09:07 51°22.587 3°13.243 -999 287 6.3 101890 67
2006-04-10 09:08 51°22.573 3°13.266 -999 274 6.2 101890 67
2006-04-10 09:09 51°22.558 3°13.289 -999 267 6.2 101890 68
2006-04-10 09:10 51°22.544 3°13.314 -999 275 6.2 101910 68
2006-04-10 09:11 51°22.53 3°13.341 -999 281 6.3 101900 69
2006-04-10 09:12 51°22.514 3°13.377 -999 283 6.3 101890 69
2006-04-10 09:13 51°22.527 3°13.498 -999 354 6.4 101890 68
2006-04-10 09:14 51°22.622 3°13.49 -999 72 6.3 101860 69
2006-04-10 09:15 51°22.678 3°13.265 -999 64 6.2 101890 70
2006-04-10 09:16 51°22.739 3°12.974 -999 67 6.2 101880 71
2006-04-10 09:17 51°22.797 3°12.677 -999 76 6.1 101880 71
2006-04-10 09:18 51°22.854 3°12.376 -999 65 6.1 101880 72
2006-04-10 09:19 51°22.91 3°12.078 -999 68 6 101890 72
2006-04-10 09:20 51°22.967 3°11.767 -999 69 6 101890 72
2006-04-10 09:21 51°23.027 3°11.462 -999 65 5.9 101890 71
2006-04-10 09:22 51°23.092 3°11.158 -999 71 5.9 101890 70
2006-04-10 09:23 51°23.154 3°10.856 -999 63 6 101880 72
2006-04-10 09:24 51°23.217 3°10.566 -999 73 6 101890 71
2006-04-10 09:25 51°23.285 3°10.274 -999 68 6 101900 71
2006-04-10 09:26 51°23.355 3°9.992 -999 76 6 101900 71
2006-04-10 09:27 51°23.427 3°9.7 -999 66 6 101890 72
2006-04-10 09:28 51°23.495 3°9.421 -999 65 6 101900 72
2006-04-10 09:29 51°23.568 3°9.131 -999 66 6 101900 73
2006-04-10 09:30 51°23.638 3°8.848 -999 67 5.9 101900 71
2006-04-10 09:31 51°23.701 3°8.564 -999 80 5.9 101890 72
2006-04-10 09:32 51°23.759 3°8.269 -999 69 6 101910 73
2006-04-10 09:33 51°23.813 3°7.975 -999 73 5.9 101900 72
2006-04-10 09:34 51°23.855 3°7.677 -999 80 6 101910 72
2006-04-10 09:35 51°23.894 3°7.377 -999 68 6 101920 73
2006-04-10 09:36 51°23.936 3°7.078 -999 69 6 101900 73
2006-04-10 09:37 51°23.978 3°6.777 -999 70 5.9 101910 73
2006-04-10 09:38 51°24.021 3°6.474 -999 78 6 101910 73
2006-04-10 09:39 51°24.066 3°6.174 -999 69 5.9 101920 73
2006-04-10 09:40 51°24.12 3°5.883 -999 69 6 101900 73
2006-04-10 09:41 51°24.182 3°5.586 -999 77 6 101920 74
2006-04-10 09:42 51°24.244 3°5.298 -999 65 6 101910 74
2006-04-10 09:43 51°24.307 3°4.999 -999 71 6 101910 74
2006-04-10 09:44 51°24.369 3°4.704 -999 77 6 101920 73
2006-04-10 09:45 51°24.432 3°4.409 -999 68 6 101900 73
2006-04-10 09:46 51°24.497 3°4.115 -999 64 6 101900 73
2006-04-10 09:47 51°24.564 3°3.825 -999 65 6 101910 72
2006-04-10 09:48 51°24.633 3°3.534 -999 76 6 101920 72
2006-04-10 09:49 51°24.684 3°3.236 -999 77 6 101910 73
2006-04-10 09:50 51°24.722 3°2.916 -999 66 6 101920 71
2006-04-10 09:51 51°24.737 3°2.606 -999 73 6 101920 73
2006-04-10 09:52 51°24.744 3°2.283 -999 80 6 101920 73
2006-04-10 09:53 51°24.753 3°1.968 -999 80 6 101930 73
2006-04-10 09:54 51°24.766 3°1.651 -999 81 6 101930 73
2006-04-10 09:55 51°24.78 3°1.318 -999 78 6 101930 73
2006-04-10 09:56 51°24.795 3°0.986 -999 70 6 101920 72
2006-04-10 09:57 51°24.808 3°0.653 -999 78 6 101920 73
2006-04-10 09:58 51°24.822 3°0.32 -999 73 5.9 101930 71
2006-04-10 09:59 51°24.835 2°59.982 -999 76 5.9 101930 73
2006-04-10 10:00 51°24.845 2°59.637 -999 69 5.9 101930 73
2006-04-10 10:01 51°24.851 2°59.295 -999 76 5.9 101930 73
2006-04-10 10:02 51°24.86 2°58.955 -999 71 6 101950 73
2006-04-10 10:03 51°24.875 2°58.62 -999 83 5.9 101940 72
2006-04-10 10:04 51°24.894 2°58.286 -999 80 5.9 101940 73
2006-04-10 10:05 51°24.922 2°57.955 -999 78 6 101940 74
2006-04-10 10:06 51°24.948 2°57.616 -999 77 6 101940 74
2006-04-10 10:07 51°24.972 2°57.283 -999 78 6.1 101920 74
2006-04-10 10:08 51°24.998 2°56.949 -999 65 6 101940 73
2006-04-10 10:09 51°25.031 2°56.612 -999 79 6 101940 74
2006-04-10 10:10 51°25.066 2°56.272 -999 80 6 101940 73
2006-04-10 10:11 51°25.099 2°55.933 -999 68 5.9 101940 73
2006-04-10 10:12 51°25.126 2°55.598 -999 81 6 101940 73
2006-04-10 10:13 51°25.156 2°55.266 -999 77 6 101940 73
2006-04-10 10:14 51°25.184 2°54.933 -999 77 6 101930 74
2006-04-10 10:15 51°25.213 2°54.603 -999 79 6 101940 72
2006-04-10 10:16 51°25.246 2°54.268 -999 75 5.9 101940 72
2006-04-10 10:17 51°25.278 2°53.929 -999 71 6 101950 73
2006-04-10 10:18 51°25.309 2°53.591 -999 77 6 101940 73
2006-04-10 10:19 51°25.338 2°53.255 -999 71 6 101940 72
2006-04-10 10:20 51°25.37 2°52.916 -999 74 6 101950 74
2006-04-10 10:21 51°25.403 2°52.575 -999 69 6 101940 75
2006-04-10 10:22 51°25.436 2°52.237 -999 77 6 101950 74
2006-04-10 10:23 51°25.479 2°51.902 -999 57 5.9 101950 73
2006-04-10 10:24 51°25.533 2°51.559 -999 64 5.8 101950 73
2006-04-10 10:25 51°25.584 2°51.227 -999 68 5.9 101950 73
2006-04-10 10:26 51°25.632 2°50.893 -999 70 5.9 101940 73
2006-04-10 10:27 51°25.682 2°50.56 -999 66 5.8 101940 72
2006-04-10 10:28 51°25.732 2°50.224 -999 69 5.8 101960 72
2006-04-10 10:29 51°25.784 2°49.888 -999 62 5.8 101960 71
2006-04-10 10:30 51°25.833 2°49.55 -999 69 5.9 101950 72
2006-04-10 10:31 51°25.882 2°49.211 -999 62 5.9 101960 71
2006-04-10 10:32 51°25.935 2°48.874 -999 56 5.9 101970 71
2006-04-10 10:33 51°25.973 2°48.58 -999 83 5.9 101970 72
2006-04-10 10:34 51°26 2°48.45 -999 84 6 101980 74
2006-04-10 10:35 51°26.003 2°48.456 -999 106 6 102000 73
2006-04-10 10:36 51°26.006 2°48.46 -999 112 6.1 101980 74
2006-04-10 10:37 51°26.008 2°48.464 -999 123 6.1 101990 72
2006-04-10 10:38 51°26.01 2°48.465 -999 120 6.1 101990 73
2006-04-10 10:39 51°26.014 2°48.467 -999 114 6.1 101990 72
2006-04-10 10:40 51°26.019 2°48.47 -999 114 6.1 101990 73
2006-04-10 10:41 51°26.014 2°48.429 -999 163 6.1 102000 72
2006-04-10 10:42 51°25.934 2°48.362 -999 142 6.3 102010 74
2006-04-10 10:43 51°25.783 2°48.163 -999 144 6.5 102000 71
2006-04-10 10:44 51°25.625 2°47.958 -999 145 6.4 102000 70
2006-04-10 10:45 51°25.462 2°47.759 -999 126 6.4 102000 71
2006-04-10 10:46 51°25.299 2°47.55 -999 136 6.4 102010 71
2006-04-10 10:47 51°25.147 2°47.329 -999 134 6.4 102010 72
2006-04-10 10:48 51°24.991 2°47.12 -999 92 6.4 102000 72
2006-04-10 10:49 51°24.838 2°46.901 -999 142 6.4 102010 72
2006-04-10 10:50 51°24.68 2°46.693 -999 129 6.3 102020 71
2006-04-10 10:51 51°24.524 2°46.485 -999 126 6.2 102010 71
2006-04-10 10:52 51°24.377 2°46.254 -999 129 6.3 102020 72
2006-04-10 10:53 51°24.233 2°46.023 -999 130 6.3 102010 71
2006-04-10 10:54 51°24.091 2°45.798 -999 101 6.3 102020 72
2006-04-10 10:55 51°23.945 2°45.569 -999 122 6.4 102010 71
2006-04-10 10:56 51°23.791 2°45.359 -999 126 6.3 102010 72
2006-04-10 10:57 51°23.639 2°45.146 -999 127 6.3 102020 71
2006-04-10 10:58 51°23.48 2°44.945 -999 109 6.3 102020 72
2006-04-10 10:59 51°23.318 2°44.742 -999 122 6.2 102010 71
2006-04-10 11:00 51°23.157 2°44.546 -999 105 6.2 102010 71
2006-04-10 11:01 51°22.994 2°44.346 -999 119 6.2 102020 71
2006-04-10 11:02 51°22.831 2°44.152 -999 105 6.2 102010 71
2006-04-10 11:03 51°22.669 2°43.955 -999 125 6.1 102020 70
2006-04-10 11:04 51°22.505 2°43.76 -999 225 6.1 102020 70
2006-04-10 11:05 51°22.343 2°43.553 -999 135 6.1 102010 70
2006-04-10 11:06 51°22.174 2°43.361 -999 121 6.1 102020 70
2006-04-10 11:07 51°22.007 2°43.162 -999 113 6.1 102020 70
2006-04-10 11:08 51°21.84 2°42.966 -999 142 6 102020 69
2006-04-10 11:09 51°21.673 2°42.779 -999 128 6.1 102030 71
2006-04-10 11:10 51°21.514 2°42.572 -999 116 6.1 102020 70
2006-04-10 11:11 51°21.351 2°42.378 -999 153 6.1 102020 71
2006-04-10 11:12 51°21.188 2°42.178 -999 136 6.2 102030 71
2006-04-10 11:13 51°21.019 2°41.993 -999 126 6.2 102020 70
2006-04-10 11:14 51°20.859 2°41.792 -999 122 6.2 102020 71
2006-04-10 11:15 51°20.703 2°41.581 -999 104 6.3 102030 70
2006-04-10 11:16 51°20.543 2°41.372 -999 105 6.4 102030 72
2006-04-10 11:17 51°20.388 2°41.168 -999 119 6.3 102030 70
2006-04-10 11:18 51°20.226 2°40.964 -999 118 6.3 102030 70
2006-04-10 11:19 51°20.073 2°40.753 -999 109 6.2 102030 70
2006-04-10 11:20 51°19.915 2°40.55 -999 132 6.2 102030 69
2006-04-10 11:21 51°19.758 2°40.35 -999 119 6.2 102030 69
2006-04-10 11:22 51°19.605 2°40.147 -999 111 6.3 102030 71
2006-04-10 11:23 51°19.452 2°39.928 -999 127 6.3 102030 69
2006-04-10 11:24 51°19.299 2°39.709 -999 128 6.3 102040 70
2006-04-10 11:25 51°19.142 2°39.499 -999 123 6.3 102040 70
2006-04-10 11:26 51°18.982 2°39.293 -999 135 6.4 102040 70
2006-04-10 11:27 51°18.823 2°39.09 -999 123 6.4 102040 69
2006-04-10 11:28 51°18.665 2°38.88 -999 120 6.3 102040 68
2006-04-10 11:29 51°18.505 2°38.689 -999 121 6.3 102040 68
2006-04-10 11:30 51°18.345 2°38.501 -999 131 6.3 102040 68
2006-04-10 11:31 51°18.177 2°38.323 -999 141 6.4 102040 68
2006-04-10 11:32 51°18.005 2°38.147 -999 139 6.4 102040 68
2006-04-10 11:33 51°17.834 2°37.97 -999 158 6.4 102040 68
2006-04-10 11:34 51°17.661 2°37.803 -999 120 6.5 102040 69
2006-04-10 11:35 51°17.487 2°37.626 -999 131 6.5 102040 68
2006-04-10 11:36 51°17.316 2°37.453 -999 142 6.6 102040 68
2006-04-10 11:37 51°17.146 2°37.278 -999 126 6.6 102030 68
2006-04-10 11:38 51°16.975 2°37.105 -999 124 6.7 102040 68
2006-04-10 11:39 51°16.798 2°36.945 -999 137 6.6 102030 68
2006-04-10 11:40 51°16.665 2°36.875 -999 178 6.7 102040 69
2006-04-10 11:41 51°16.614 2°36.837 -999 152 6.6 102030 67
2006-04-10 11:42 51°16.598 2°36.81 -999 151 6.6 102020 70
2006-04-10 11:43 51°16.596 2°36.791 -999 126 6.4 102020 69
2006-04-10 11:44 51°16.601 2°36.783 -999 124 6.4 102020 70
2006-04-10 11:45 51°16.608 2°36.783 -999 111 6.4 102030 71
2006-04-10 11:46 51°16.617 2°36.789 -999 100 6.4 102020 71
2006-04-10 11:47 51°16.622 2°36.802 -999 102 6.3 102010 70
2006-04-10 11:48 51°16.626 2°36.818 -999 103 6.3 102010 70
2006-04-10 11:49 51°16.628 2°36.833 -999 108 6.3 102010 70
2006-04-10 11:50 51°16.61 2°36.764 -999 169 6.3 102030 70
2006-04-10 11:51 51°16.496 2°36.822 -999 261 6.4 102030 71
2006-04-10 11:52 51°16.315 2°36.946 -999 278 6.5 102030 70
2006-04-10 11:53 51°16.122 2°37.097 -999 272 6.6 102040 69
2006-04-10 11:54 51°15.929 2°37.253 -999 280 6.6 102040 68
2006-04-10 11:55 51°15.734 2°37.411 -999 285 6.7 102030 69
2006-04-10 11:56 51°15.541 2°37.567 -999 288 6.7 102020 68
2006-04-10 11:57 51°15.345 2°37.727 -999 280 6.8 102030 69
2006-04-10 11:58 51°15.148 2°37.884 -999 272 6.8 102030 68
2006-04-10 11:59 51°14.951 2°38.043 -999 286 6.8 102030 68
2006-04-10 12:00 51°14.759 2°38.217 -999 292 6.9 102030 69
2006-04-10 12:01 51°14.566 2°38.382 -999 287 6.9 102020 69
2006-04-10 12:02 51°14.376 2°38.557 -999 284 7 102020 69
2006-04-10 12:03 51°14.186 2°38.723 -999 281 7 102020 69
2006-04-10 12:04 51°13.983 2°38.84 -999 264 6.9 102030 67
2006-04-10 12:05 51°13.768 2°38.841 -999 102 6.9 102040 67
2006-04-10 12:06 51°13.57 2°38.71 -999 149 7 102030 68
2006-04-10 12:07 51°13.372 2°38.576 -999 186 6.9 102040 66
2006-04-10 12:08 51°13.171 2°38.461 -999 102 6.9 102040 67
2006-04-10 12:09 51°12.969 2°38.351 -999 121 7 102040 67
2006-04-10 12:10 51°12.772 2°38.222 -999 129 7 102030 66
2006-04-10 12:11 51°12.578 2°38.09 -999 148 7 102040 66
2006-04-10 12:12 51°12.383 2°37.958 -999 165 7 102040 67
2006-04-10 12:13 51°12.189 2°37.823 -999 115 6.9 102030 65
2006-04-10 12:14 51°11.992 2°37.692 -999 155 6.8 102040 67
2006-04-10 12:15 51°11.794 2°37.569 -999 143 6.8 102040 67
2006-04-10 12:16 51°11.598 2°37.444 -999 130 6.8 102040 66
2006-04-10 12:17 51°11.403 2°37.321 -999 159 6.8 102040 66
2006-04-10 12:18 51°11.208 2°37.186 -999 109 6.8 102040 67
2006-04-10 12:19 51°11.013 2°37.059 -999 145 6.8 102040 68
2006-04-10 12:20 51°10.817 2°36.933 -999 159 6.9 102040 67
2006-04-10 12:21 51°10.619 2°36.818 -999 189 6.9 102040 67
2006-04-10 12:22 51°10.423 2°36.909 -999 285 7 102040 68
2006-04-10 12:23 51°10.337 2°37.222 -999 317 7 102030 67
2006-04-10 12:24 51°10.381 2°37.578 -999 325 6.9 101980 66
2006-04-10 12:25 51°10.428 2°37.949 -999 320 6.8 101980 67
2006-04-10 12:26 51°10.466 2°38.315 -999 319 6.7 101970 66
2006-04-10 12:27 51°10.502 2°38.679 -999 323 6.6 101980 66
2006-04-10 12:28 51°10.543 2°39.042 -999 320 6.5 101980 67
2006-04-10 12:29 51°10.596 2°39.399 -999 325 6.5 101980 67
2006-04-10 12:30 51°10.66 2°39.755 -999 334 6.5 101970 67
2006-04-10 12:31 51°10.725 2°40.11 -999 329 6.5 101980 67
2006-04-10 12:32 51°10.789 2°40.466 -999 322 6.5 101990 67
2006-04-10 12:33 51°10.851 2°40.823 -999 327 6.5 101990 70
2006-04-10 12:34 51°10.918 2°41.178 -999 327 6.4 101990 68
2006-04-10 12:35 51°10.986 2°41.531 -999 329 6.4 101990 69
2006-04-10 12:36 51°11.035 2°41.799 -999 317 6.4 101990 68
2006-04-10 12:37 51°11.064 2°41.967 -999 41 6.4 102000 69
2006-04-10 12:38 51°11.078 2°42.063 -999 302 6.4 102020 68
2006-04-10 12:39 51°11.074 2°42.08 -999 286 6.4 102020 68
2006-04-10 12:40 51°11.066 2°42.091 -999 262 6.5 102030 68
2006-04-10 12:41 51°11.059 2°42.107 -999 259 6.4 102020 68
2006-04-10 12:42 51°11.053 2°42.125 -999 256 6.4 102020 67
2006-04-10 12:43 51°11.046 2°42.145 -999 266 6.5 102030 70
2006-04-10 12:44 51°11.038 2°42.181 -999 278 6.6 102010 71
2006-04-10 12:45 51°11.043 2°42.36 -999 42 6.6 102010 69
2006-04-10 12:46 51°11.09 2°42.643 -999 325 6.6 101990 69
2006-04-10 12:47 51°11.15 2°42.978 -999 316 6.5 101990 68
2006-04-10 12:48 51°11.209 2°43.333 -999 317 6.5 101980 69
2006-04-10 12:49 51°11.262 2°43.683 -999 327 6.5 101980 68
2006-04-10 12:50 51°11.33 2°44.026 -999 327 6.5 101980 68
2006-04-10 12:51 51°11.401 2°44.369 -999 324 6.4 101970 68
2006-04-10 12:52 51°11.472 2°44.714 -999 322 6.4 101980 68
2006-04-10 12:53 51°11.541 2°45.057 -999 328 6.4 101980 67
2006-04-10 12:54 51°11.609 2°45.398 -999 323 6.4 101980 67
2006-04-10 12:55 51°11.677 2°45.75 -999 316 6.5 101980 68
2006-04-10 12:56 51°11.747 2°46.095 -999 324 6.5 101990 68
2006-04-10 12:57 51°11.82 2°46.437 -999 330 6.4 101990 68
2006-04-10 12:58 51°11.905 2°46.772 -999 331 6.4 101970 67
2006-04-10 12:59 51°11.988 2°47.111 -999 327 6.5 101980 69
2006-04-10 13:00 51°12.073 2°47.446 -999 327 6.6 102000 69
2006-04-10 13:01 51°12.173 2°47.766 -999 328 6.5 101980 70
2006-04-10 13:02 51°12.28 2°48.077 -999 328 6.5 101970 69
2006-04-10 13:03 51°12.386 2°48.391 -999 325 6.4 101970 68
2006-04-10 13:04 51°12.486 2°48.711 -999 326 6.5 101980 69
2006-04-10 13:05 51°12.574 2°49.041 -999 324 6.4 101970 67
2006-04-10 13:06 51°12.663 2°49.368 -999 329 6.5 102000 68
2006-04-10 13:07 51°12.748 2°49.696 -999 325 6.4 101980 67
2006-04-10 13:08 51°12.846 2°50.017 -999 339 6.5 101990 67
2006-04-10 13:09 51°12.964 2°50.322 -999 331 6.5 101970 66
2006-04-10 13:10 51°13.079 2°50.625 -999 337 6.5 101990 66
2006-04-10 13:11 51°13.194 2°50.93 -999 334 6.6 101980 67
2006-04-10 13:12 51°13.309 2°51.236 -999 331 6.5 101990 67
2006-04-10 13:13 51°13.426 2°51.54 -999 331 6.5 101980 66
2006-04-10 13:14 51°13.542 2°51.847 -999 333 6.6 101980 69
2006-04-10 13:15 51°13.66 2°52.153 -999 330 6.6 101980 69
2006-04-10 13:16 51°13.777 2°52.46 -999 336 6.6 101970 68
2006-04-10 13:17 51°13.896 2°52.766 -999 336 6.5 101980 67
2006-04-10 13:18 51°14.014 2°53.071 -999 338 6.6 101980 67
2006-04-10 13:19 51°14.13 2°53.377 -999 339 6.5 101990 67
2006-04-10 13:20 51°14.225 2°53.701 -999 335 6.6 101980 68
2006-04-10 13:21 51°14.305 2°54.032 -999 322 6.5 101980 66
2006-04-10 13:22 51°14.354 2°54.38 -999 322 6.5 101980 67
2006-04-10 13:23 51°14.383 2°54.73 -999 326 6.5 101990 67
2006-04-10 13:24 51°14.356 2°55.062 -999 295 6.5 101980 66
2006-04-10 13:25 51°14.255 2°55.27 -999 274 6.6 102020 66
2006-04-10 13:26 51°14.155 2°55.384 -999 242 6.7 102030 67
2006-04-10 13:27 51°14.057 2°55.46 -999 237 6.7 102030 66
2006-04-10 13:28 51°13.977 2°55.517 -999 245 6.8 102030 66
2006-04-10 13:29 51°13.902 2°55.574 -999 245 6.9 102020 67
2006-04-10 13:30 51°13.83 2°55.636 -999 243 7 102030 67
2006-04-10 13:31 51°13.766 2°55.702 -999 263 6.9 102020 64
2006-04-10 13:32 51°13.719 2°55.791 -999 279 6.8 102030 64
2006-04-10 13:33 51°13.678 2°55.879 -999 270 6.9 102040 65
2006-04-10 13:34 51°13.644 2°55.952 -999 238 7 102030 65
2006-04-10 13:35 51°13.618 2°56.02 -999 276 7.2 102020 64
2006-04-10 13:36 51°13.607 2°56.075 -999 260 7.4 102020 64
2006-04-10 13:37 51°13.604 2°56.091 -999 262 7.6 102030 65
2006-04-10 13:38 51°13.6 2°56.097 -999 283 7.7 102030 63